Location: Unspecified
(0.0000°N, 0.0000°E)
Time: 13:04:05
(UTC+02:00)

Iridium 39 - Visible Passes

Search period start: 28 August 2014 00:00
Search period end: 07 September 2014 00:00
Orbit: 776 x 779 km, 86.4° (Epoch: 27 August)

Date Brightness Start Highest point End Pass type
(mag) Time Alt. Az. Time Alt. Az. Time Alt. Az.
28 Aug 5.9 21:24:19 10° N 21:29:31 84° E 21:34:44 10° S visible
29 Aug 6.5 20:51:18 10° NNE 20:56:03 37° E 21:00:50 10° SSE visible
29 Aug 9.0 22:34:44 10° WNW 22:36:29 12° W 22:38:13 10° WSW visible
30 Aug 7.4 20:19:20 10° NE 20:22:36 17° E 20:25:52 10° SE visible
30 Aug 8.0 21:58:43 10° NNW 22:03:01 27° W 22:07:20 10° SW visible
31 Aug 6.5 21:24:27 10° N 21:29:33 60° W 21:34:41 10° S visible
01 Sep 6.0 20:50:59 10° N 20:56:06 61° E 21:01:14 10° S visible
02 Sep 6.9 20:18:18 10° NNE 20:22:38 27° E 20:26:59 10° SSE visible
02 Sep 8.8 21:59:52 10° NW 22:03:03 17° W 22:06:16 10° SW visible
03 Sep 7.6 21:24:52 10° NNW 21:29:36 36° W 21:34:21 10° SSW visible
04 Sep 6.1 20:50:56 10° N 20:56:08 82° W 21:01:21 10° S visible
05 Sep 6.3 20:17:45 10° NNE 20:22:40 44° E 20:27:36 10° SSE visible
06 Sep 8.5 21:25:38 10° NW 21:29:38 23° W 21:33:39 10° SW visible
